sat.trackr.live / text

‹ back to catalog

STARLINK-34227

NORAD 64178 · 2025-113J

PAYLOAD ACTIVE UNKNOWN

§ Identity

Operator
Country
US
Launch date
2025-05-28
Launch site
AFETR
Launch vehicle
Mass (kg)
RCS (m²)

Purposes: comms

External: N2YO · Heavens-Above · Gunter

§ Orbital elements

Epoch: 2026-05-25T03:54:30.256416Z

Period
94.11 min
Inclination
53.1572°
Eccentricity
0.0001125
Mean motion
15.30198246 rev/d
Perigee alt
474.4 km
Apogee alt
476.0 km
Semi-major
6,853.4 km
B*
6.8845e-4
RAAN
95.9083°
Arg perigee
77.5249°
Mean anomaly
282.5878°
Rev number
5,677

§ Raw data

STARLINK-342271 64178U 25113J   26145.16285019  .00020085  00000+0  68845-3 0  99962 64178  53.1572  95.9083 0001125  77.5249 282.5878 15.30198246 56772

JSON: /api/v1/satellites/64178 · /tle

For live sub-satellite position, see the globe view (requires WebGL).

§ Visibility from observer

Set your observer location to see the next 7 days of passes ≥ 10°. The values pass through the URL so the page stays shareable.

No JS? Fill the form by hand. The geolocation button needs JavaScript.